TimeCST,TemperatureF,Dew PointF,Humidity,Sea Level PressureIn,VisibilityMPH,Wind Direction,Wind SpeedMPH,Gust SpeedMPH,PrecipitationIn,Events,Conditions,WindDirDegrees,DateUTC
12:15 AM,32.0,23.0,69,30.22,10.0,ESE,6.9,-,N/A,,Scattered Clouds,110,2013-03-08 06:15:00
12:35 AM,32.0,23.0,69,30.21,10.0,ESE,6.9,-,N/A,,Scattered Clouds,120,2013-03-08 06:35:00
12:55 AM,32.0,23.0,69,30.22,10.0,East,4.6,-,N/A,,Scattered Clouds,100,2013-03-08 06:55:00
1:15 AM,30.2,23.0,75,30.22,10.0,ESE,8.1,-,N/A,,Scattered Clouds,120,2013-03-08 07:15:00
1:35 AM,32.0,23.0,69,30.22,10.0,ESE,5.8,-,N/A,,Scattered Clouds,120,2013-03-08 07:35:00
1:55 AM,32.0,23.0,69,30.22,10.0,SE,8.1,-,N/A,,Scattered Clouds,130,2013-03-08 07:55:00
2:15 AM,32.0,23.0,69,30.21,10.0,ESE,6.9,-,N/A,,Scattered Clouds,120,2013-03-08 08:15:00
2:35 AM,32.0,23.0,69,30.21,10.0,SE,5.8,-,N/A,,Scattered Clouds,130,2013-03-08 08:35:00
2:55 AM,32.0,23.0,69,30.20,10.0,SE,8.1,-,N/A,,Scattered Clouds,130,2013-03-08 08:55:00
3:15 AM,32.0,24.8,75,30.19,10.0,SE,5.8,-,N/A,,Scattered Clouds,130,2013-03-08 09:15:00
3:35 AM,32.0,24.8,75,30.19,10.0,SE,5.8,-,N/A,,Scattered Clouds,140,2013-03-08 09:35:00
3:55 AM,30.2,23.0,75,30.19,10.0,East,3.5,-,N/A,,Scattered Clouds,100,2013-03-08 09:55:00
4:15 AM,30.2,23.0,75,30.18,10.0,ESE,5.8,-,N/A,,Scattered Clouds,110,2013-03-08 10:15:00
4:35 AM,30.2,23.0,75,30.18,10.0,ESE,5.8,-,N/A,,Scattered Clouds,110,2013-03-08 10:35:00
4:55 AM,30.2,24.8,80,30.18,10.0,East,4.6,-,N/A,,Scattered Clouds,100,2013-03-08 10:55:00
5:15 AM,30.2,24.8,80,30.18,10.0,East,5.8,-,N/A,,Scattered Clouds,100,2013-03-08 11:15:00
5:35 AM,30.2,24.8,80,30.18,10.0,East,5.8,-,N/A,,Scattered Clouds,90,2013-03-08 11:35:00
5:55 AM,32.0,24.8,75,30.18,10.0,East,3.5,-,N/A,,Scattered Clouds,90,2013-03-08 11:55:00
6:15 AM,32.0,24.8,75,30.18,10.0,East,3.5,-,N/A,,Scattered Clouds,100,2013-03-08 12:15:00
6:35 AM,32.0,24.8,75,30.19,10.0,ESE,4.6,-,N/A,,Scattered Clouds,120,2013-03-08 12:35:00
6:55 AM,30.2,24.8,80,30.19,7.0,ESE,5.8,-,N/A,,Scattered Clouds,110,2013-03-08 12:55:00
7:15 AM,32.0,24.8,75,30.18,7.0,ESE,6.9,-,N/A,,Clear,110,2013-03-08 13:15:00
7:35 AM,33.8,24.8,70,30.18,7.0,ESE,9.2,-,N/A,,Clear,120,2013-03-08 13:35:00
7:55 AM,35.6,26.6,70,30.18,10.0,East,3.5,-,N/A,,Clear,90,2013-03-08 13:55:00
8:15 AM,35.6,26.6,70,30.18,10.0,ESE,8.1,-,N/A,,Clear,120,2013-03-08 14:15:00
8:35 AM,37.4,26.6,65,30.18,10.0,ESE,6.9,-,N/A,,Clear,110,2013-03-08 14:35:00
8:55 AM,39.2,28.4,65,30.19,10.0,SE,5.8,-,N/A,,Clear,140,2013-03-08 14:55:00
9:15 AM,41.0,28.4,61,30.18,10.0,SE,8.1,-,N/A,,Clear,140,2013-03-08 15:15:00
9:35 AM,42.8,28.4,57,30.18,10.0,SE,9.2,-,N/A,,Clear,140,2013-03-08 15:35:00
9:55 AM,44.6,28.4,53,30.18,10.0,SE,9.2,-,N/A,,Clear,140,2013-03-08 15:55:00
10:15 AM,46.4,30.2,53,30.17,10.0,SE,11.5,-,N/A,,Clear,130,2013-03-08 16:15:00
10:35 AM,50.0,30.2,47,30.17,10.0,SE,11.5,-,N/A,,Clear,140,2013-03-08 16:35:00
10:55 AM,51.8,30.2,44,30.16,10.0,SE,13.8,19.6,N/A,,Scattered Clouds,140,2013-03-08 16:55:00
11:15 AM,51.8,30.2,44,30.16,10.0,SSE,16.1,-,N/A,,Clear,150,2013-03-08 17:15:00
11:35 AM,50.0,30.2,47,30.15,10.0,SE,16.1,20.7,N/A,,Clear,140,2013-03-08 17:35:00
11:55 AM,51.8,32.0,47,30.15,10.0,SSE,11.5,-,N/A,,Clear,150,2013-03-08 17:55:00
12:15 PM,53.6,32.0,44,30.15,10.0,South,12.7,-,N/A,,Clear,170,2013-03-08 18:15:00
12:35 PM,53.6,32.0,44,30.14,10.0,SSE,15.0,-,N/A,,Clear,160,2013-03-08 18:35:00
12:55 PM,53.6,33.8,47,30.13,10.0,SE,16.1,19.6,N/A,,Clear,140,2013-03-08 18:55:00
1:15 PM,53.6,33.8,47,30.11,10.0,SSE,17.3,20.7,N/A,,Clear,150,2013-03-08 19:15:00
1:35 PM,55.4,33.8,44,30.10,10.0,SE,17.3,21.9,N/A,,Clear,140,2013-03-08 19:35:00
1:55 PM,55.4,33.8,44,30.09,10.0,SE,13.8,19.6,N/A,,Clear,140,2013-03-08 19:55:00
2:15 PM,53.6,33.8,47,30.08,10.0,SE,18.4,-,N/A,,Clear,130,2013-03-08 20:15:00
2:35 PM,53.6,35.6,51,30.07,10.0,ESE,16.1,20.7,N/A,,Clear,120,2013-03-08 20:35:00
2:55 PM,53.6,35.6,51,30.08,10.0,SE,17.3,-,N/A,,Clear,130,2013-03-08 20:55:00
3:15 PM,51.8,35.6,54,30.08,10.0,SE,21.9,-,N/A,,Clear,130,2013-03-08 21:15:00
3:35 PM,50.0,33.8,54,30.07,10.0,SE,20.7,25.3,N/A,,Scattered Clouds,140,2013-03-08 21:35:00
3:55 PM,48.2,33.8,58,30.06,10.0,SE,24.2,28.8,N/A,,Scattered Clouds,130,2013-03-08 21:55:00
4:15 PM,48.2,33.8,58,30.05,10.0,SE,20.7,28.8,N/A,,Scattered Clouds,140,2013-03-08 22:15:00
4:35 PM,46.4,32.0,57,30.04,10.0,SE,20.7,26.5,N/A,,Mostly Cloudy,130,2013-03-08 22:35:00
4:55 PM,46.4,32.0,57,30.05,10.0,SE,18.4,25.3,N/A,,Overcast,140,2013-03-08 22:55:00
5:15 PM,44.6,32.0,61,30.05,10.0,SE,18.4,24.2,N/A,,Overcast,130,2013-03-08 23:15:00
5:35 PM,44.6,32.0,61,30.04,10.0,SE,24.2,-,N/A,,Overcast,140,2013-03-08 23:35:00
5:55 PM,44.6,30.2,57,30.04,10.0,SE,20.7,27.6,N/A,,Overcast,130,2013-03-08 23:55:00
6:15 PM,44.6,30.2,57,30.03,10.0,SE,24.2,29.9,N/A,,Overcast,130,2013-03-09 00:15:00
6:35 PM,42.8,30.2,61,30.03,10.0,SE,20.7,-,N/A,,Overcast,140,2013-03-09 00:35:00
6:55 PM,42.8,30.2,61,30.03,10.0,SE,16.1,20.7,N/A,,Drizzle,130,2013-03-09 00:55:00
7:15 PM,42.8,30.2,61,30.04,10.0,SE,13.8,-,N/A,,Overcast,140,2013-03-09 01:15:00
7:35 PM,42.8,30.2,61,30.03,10.0,SE,15.0,-,N/A,,Overcast,140,2013-03-09 01:35:00
7:55 PM,44.6,30.2,57,30.03,10.0,SE,16.1,20.7,N/A,,Overcast,140,2013-03-09 01:55:00
8:15 PM,44.6,30.2,57,30.02,10.0,SE,18.4,26.5,N/A,,Overcast,130,2013-03-09 02:15:00
8:35 PM,44.6,32.0,61,30.02,10.0,SE,15.0,20.7,N/A,,Overcast,140,2013-03-09 02:35:00
8:55 PM,44.6,32.0,61,30.02,10.0,SE,16.1,19.6,N/A,,Overcast,140,2013-03-09 02:55:00
9:15 PM,44.6,30.2,57,30.02,10.0,SE,17.3,26.5,N/A,,Overcast,140,2013-03-09 03:15:00
9:35 PM,44.6,32.0,61,30.02,10.0,SSE,13.8,-,N/A,,Light Drizzle,150,2013-03-09 03:35:00
9:55 PM,42.8,33.8,70,30.02,10.0,SE,12.7,-,N/A,,Drizzle,140,2013-03-09 03:55:00
10:15 PM,44.6,33.8,66,30.00,10.0,SE,18.4,21.9,N/A,,Overcast,140,2013-03-09 04:15:00
10:35 PM,42.8,33.8,70,30.00,10.0,SE,15.0,-,N/A,,Drizzle,140,2013-03-09 04:35:00
10:55 PM,42.8,33.8,70,29.98,10.0,SE,18.4,-,N/A,,Light Drizzle,140,2013-03-09 04:55:00
11:15 PM,42.8,33.8,70,29.97,10.0,SSE,16.1,-,N/A,,Overcast,150,2013-03-09 05:15:00
11:35 PM,44.6,33.8,66,29.96,10.0,SSE,16.1,21.9,N/A,,Overcast,150,2013-03-09 05:35:00
11:55 PM,42.8,35.6,76,29.94,10.0,SSE,12.7,21.9,N/A,Rain,Light Rain,150,2013-03-09 05:55:00